Location: Township of South Roscoe
(37.9570°N, 100.1180°W)
Time: 14:59:33
(UTC+00:00)

ATLAS 5 CENTAUR R/B - Pass Details

Date: 17 October 2021
Orbit: 497 x 1159 km, 63.4° (Epoch: 25 November)

Event Time Altitude Azimuth Distance (km) Brightness Sun altitude
Exits shadow 12:05:24 11° 260° (W) 2,712 4.2 -9.8°
Maximum altitude 12:06:16 11° 252° (WSW) 2,718 4.3 -9.6°
Drops below altitude 10° 12:07:59 10° 237° (WSW) 2,845 4.5 -9.3°
Sets 12:13:15 0° 205° (SSW) 3,921 5.5 -8.2°
